Location: Bartlow
(52.0833°N, 0.3167°E)
Time: 12:16:45
(UTC+00:00)

ADEOS II - Pass Details

Date: 26 September 2023
Orbit: 797 x 798 km, 98.7° (Epoch: 10 December)

Event Time Altitude Azimuth Distance (km) Brightness Sun altitude
Rises 04:00:13 0° 7° (N) 3,320 5.7 -17.4°
Reaches altitude 10° 04:03:03 10° 352° (N) 2,385 4.7 -17.0°
Maximum altitude 04:06:54 21° 305° (NW) 1,730 3.5 -16.5°
Enters shadow 04:08:08 19° 286° (WNW) 1,807 3.5 -16.3°
